User: anonymous   Login
Location: Unspecified
(0.0000°N, 0.0000°E)
Time: 18:18:11
(UTC+00:00)
Language:

Hubble Space Telescope - Orbit

View from above orbital plane
View from above orbital plane
View from above satellite
View from above satellite

Ground track
Ground track

The orbit data is extracted from the following two-line orbital elements,

1 20580U 90037B   17266.15458333  .00000547  00000-0  22724-4 0  9995
2 20580  28.4697  80.1336 0002809 144.2248 173.7474 15.08856681305096
Epoch (UTC): 23 September 2017 03:42:36
Eccentricity: 0.0002809
inclination: 28.4697°
perigee height: 538 km
apogee height: 541 km
right ascension of ascending node: 80.1336°
argument of perigee: 144.2248°
revolutions per day: 15.08856681
mean anomaly at epoch: 173.7474°
orbit number at epoch: 30509

The dashed part of the orbit path shows where the satellite is in the earth's shadow,  

DLR